Location: Maiden
(35.5760°N, 81.2120°W)
Time: 13:54:16
(UTC-04:00)

SL-16 R/B - Pass Details

Date: 14 June 2018
Orbit: 841 x 849 km, 71.0° (Epoch: 18 June)

Event Time Altitude Azimuth Distance (km) Brightness Sun altitude
Rises 22:23:06 0° 323° (NW) 3,414 7.1 -17.0°
Reaches altitude 10° 22:26:01 10° 309° (NW) 2,475 5.9 -17.4°
Maximum altitude 22:30:21 23° 259° (W) 1,732 4.2 -18.0°
Drops below altitude 10° 22:34:41 10° 209° (SSW) 2,465 4.4 -18.6°
Enters shadow 22:35:57 - 202° (SSW) 2,852 4.7 -18.8°
